1486818001.09,17703,11.13,73730.0,-2.35,-34.95,-35.35,0,*5D
1486818002.33,17704,11.13,73732.5,-2.35,-34.47,-34.83,0,*59
1486818003.57,17705,11.13,73730.8,-2.37,-34.71,-35.17,0,*53
1486818004.8,17706,11.13,73734.3,-2.35,-34.59,-35.01,0,*5F
1486818006.06,17707,11.06,73732.8,-2.35,-34.31,-34.65,0,*53
1486818007.29,17708,11.13,73738.5,-2.35,-33.89,-34.41,0,*5E
1486818008.51,17709,11.13,73734.5,-2.35,-34.59,-35.01,0,*50
1486818009.73,17710,11.13,73730.5,-2.35,-34.13,-34.47,0,*55
1486818010.99,17711,11.13,73732.8,-2.37,-34.71,-35.23,0,*51
1486818012.25,17712,11.13,73730.3,-2.37,-34.35,-34.89,0,*53
1486818013.55,17713,11.13,73730.0,-2.37,-34.53,-35.07,0,*55
1486818014.81,17714,11.13,73730.5,-2.37,-34.19,-34.71,0,*5C
1486818016.1,17715,11.13,73730.5,-2.37,-34.31,-34.83,0,*5A
1486818017.32,17716,11.13,73734.0,-2.35,-34.47,-35.01,0,*51
1486818018.59,17717,11.13,73738.0,-2.33,-34.31,-34.77,0,*57
1486818019.82,17718,11.13,73732.8,-2.35,-34.41,-34.83,0,*52
1486818021.05,17719,11.13,73734.0,-2.35,-34.41,-34.83,0,*53
1486818022.26,17720,11.13,73732.5,-2.35,-34.89,-35.29,0,*5C
1486818023.5,17721,11.13,73732.3,-2.35,-34.65,-35.17,0,*52
1486818024.76,17722,11.13,73738.3,-2.37,-35.17,-35.41,0,*54
1486818026.06,17723,11.13,73736.3,-2.37,-34.65,-35.07,0,*53
1486818027.35,17724,11.13,73732.5,-2.37,-34.35,-34.65,0,*54
1486818028.57,17725,11.13,73732.3,-2.35,-34.59,-35.13,0,*5D
1486818029.81,17726,11.13,73734.0,-2.37,-34.71,-35.17,0,*52
1486818031.06,17727,11.13,73732.0,-2.37,-34.47,-35.01,0,*51
1486818032.33,17728,11.13,73736.0,-2.37,-34.53,-34.89,0,*5A
1486818033.56,17729,11.13,73734.8,-2.35,-34.41,-34.83,0,*50
1486818034.85,17730,11.13,73734.5,-2.37,-34.35,-34.65,0,*51
1486818036.14,17731,11.13,73734.0,-2.37,-34.83,-35.23,0,*5E
1486818037.38,17732,11.13,73734.3,-2.39,-34.35,-34.71,0,*58
1486818038.63,17733,11.13,73732.5,-2.37,-34.47,-34.71,0,*52
1486818039.86,17734,11.13,73732.3,-2.35,-34.41,-34.83,0,*5C
1486818041.15,17735,11.13,73732.3,-2.37,-34.19,-34.65,0,*5A
1486818042.39,17736,11.13,73730.5,-2.35,-34.31,-34.77,0,*52
1486818043.68,17737,11.13,73736.0,-2.37,-34.53,-35.07,0,*53
1486818044.9,17738,11.13,73732.0,-2.35,-34.59,-35.13,0,*51
1486818046.14,17739,11.13,73732.8,-2.37,-34.89,-35.29,0,*56
1486818047.41,17740,11.13,73734.3,-2.37,-34.71,-35.23,0,*55
1486818048.7,17741,11.13,73732.0,-2.37,-34.31,-34.65,0,*53
1486818049.97,17742,11.13,73734.0,-2.37,-34.71,-35.23,0,*57
1486818051.18,17743,11.13,73738.0,-2.39,-34.41,-34.89,0,*5A
1486818052.42,17744,11.13,73736.8,-2.39,-34.19,-34.59,0,*5D
1486818053.63,17745,11.13,73736.8,-2.39,-34.25,-34.59,0,*53
1486818054.87,17746,11.13,73732.8,-2.39,-34.35,-34.71,0,*5B
1486818056.12,17747,11.13,73732.8,-2.37,-34.07,-34.47,0,*50
1486818057.39,17748,11.13,73732.3,-2.37,-34.71,-35.23,0,*5D
1486818058.67,17749,11.13,73730.5,-2.37,-34.35,-34.83,0,*57
1486818059.94,17750,11.13,73736.0,-2.37,-34.71,-35.23,0,*54
1486818061.21,17751,11.13,73734.0,-2.37,-34.71,-35.23,0,*55
1486818062.44,17752,11.13,73732.8,-2.37,-35.17,-35.47,0,*55
1486818063.68,17753,11.13,73732.0,-2.37,-34.47,-34.89,0,*53
1486818064.95,17754,11.13,73736.5,-2.39,-34.65,-35.23,0,*5B
1486818066.19,17755,11.13,73734.8,-2.39,-34.53,-34.89,0,*5E
1486818067.46,17756,11.13,73734.8,-2.37,-34.47,-34.83,0,*5C
1486818068.73,17757,11.13,73732.0,-2.37,-34.13,-34.53,0,*51
1486818069.95,17758,11.13,73732.3,-2.39,-34.59,-35.13,0,*5B
1486818071.19,17759,11.13,73734.8,-2.39,-34.35,-34.77,0,*53
1486818072.43,17760,11.13,73732.8,-2.35,-34.77,-35.23,0,*53
1486818073.66,17761,11.13,73732.3,-2.37,-35.17,-35.59,0,*5A
1486818074.95,17762,11.13,73734.8,-2.37,-34.83,-35.23,0,*58
1486818076.22,17763,11.13,73734.3,-2.41,-34.71,-35.23,0,*55
1486818077.46,17764,11.13,73736.8,-2.39,-34.59,-34.95,0,*5B
1486818078.73,17765,11.13,73732.5,-2.41,-34.71,-35.23,0,*53
1486818079.95,17766,11.13,73738.5,-2.39,-34.71,-35.13,0,*5C
1486818081.21,17767,11.13,73732.8,-2.41,-34.19,-34.71,0,*59
1486818082.44,17768,11.13,73734.8,-2.39,-34.77,-35.13,0,*54
1486818083.68,17769,11.13,73736.0,-2.39,-34.59,-34.95,0,*56
1486818084.97,17770,11.13,73732.8,-2.41,-35.07,-35.35,0,*50
1486818086.22,17771,11.13,73734.8,-2.41,-34.77,-35.29,0,*5A
1486818087.49,17772,11.13,73738.0,-2.39,-34.53,-35.07,0,*5C
1486818088.73,17773,11.13,73736.5,-2.39,-34.35,-34.77,0,*5B
1486818089.98,17774,11.13,73736.8,-2.39,-34.59,-34.95,0,*5A
1486818091.24,17775,11.13,73736.0,-2.41,-34.53,-34.89,0,*53
1486818092.49,17776,11.13,73736.0,-2.41,-34.19,-34.41,0,*5A
1486818093.7,17777,11.13,73734.0,-2.39,-34.41,-34.89,0,*5D
1486818094.94,17778,11.13,73732.5,-2.39,-34.19,-34.59,0,*52
1486818096.2,17779,11.13,73734.3,-2.41,-34.77,-35.23,0,*58
1486818097.45,17780,11.13,73734.3,-2.41,-34.71,-35.13,0,*5B
1486818098.71,17781,11.13,73732.8,-2.41,-34.19,-34.59,0,*5B
1486818099.97,17782,11.13,73734.3,-2.41,-34.35,-34.59,0,*56
1486818101.22,17783,11.13,73734.3,-2.41,-34.01,-34.41,0,*59
1486818102.46,17784,11.13,73732.8,-2.39,-34.13,-34.53,0,*51
1486818103.76,17785,11.13,73736.0,-2.41,-34.53,-34.95,0,*51
1486818104.97,17786,11.13,73732.3,-2.39,-34.41,-34.77,0,*52
1486818106.22,17787,11.13,73734.5,-2.39,-34.13,-34.53,0,*52
1486818107.43,17788,11.13,73734.8,-2.39,-34.41,-34.77,0,*5C
1486818108.67,17789,11.13,73734.8,-2.39,-34.53,-34.89,0,*5F
1486818109.93,17790,11.13,73732.3,-2.41,-34.35,-34.71,0,*5F
1486818111.19,17791,11.13,73736.3,-2.41,-34.25,-34.53,0,*5F
1486818112.48,17792,11.13,73738.5,-2.41,-34.35,-35.07,0,*5D
1486818113.72,17793,11.13,73734.3,-2.41,-34.71,-35.13,0,*59
1486818114.95,17794,11.13,73734.3,-2.39,-34.77,-35.29,0,*5E
1486818116.17,17795,11.13,73734.5,-2.39,-34.71,-35.13,0,*50
1486818117.41,17796,11.13,73734.5,-2.39,-34.71,-35.23,0,*50
1486818118.68,17797,11.13,73734.5,-2.41,-34.71,-35.23,0,*5E
1486818119.95,17798,11.13,73734.3,-2.39,-34.95,-35.35,0,*53
1486818121.18,17799,11.13,73736.8,-2.41,-34.89,-35.29,0,*5D
1486818122.4,17800,11.13,73734.8,-2.39,-35.29,-35.71,0,*5B
1486818123.66,17801,11.13,73732.8,-2.41,-34.77,-35.23,0,*58
1486818124.9,17802,11.13,73738.5,-2.41,-34.59,-34.89,0,*56
1486818126.19,17803,11.13,73732.3,-2.41,-34.95,-35.35,0,*51
1486818127.48,17804,11.13,73732.8,-2.41,-34.53,-35.07,0,*5D
1486818128.74,17805,11.13,73736.8,-2.41,-34.35,-34.89,0,*5B
1486818130.03,17806,11.13,73740.0,-2.41,-34.53,-34.95,0,*55
1486818131.29,17807,11.13,73734.0,-2.41,-34.35,-34.71,0,*5E
1486818132.55,17808,11.13,73732.5,-2.41,-34.35,-34.77,0,*57
1486818133.81,17809,11.13,73734.8,-2.41,-34.71,-35.23,0,*56
1486818135.05,17810,11.13,73734.5,-2.43,-34.47,-34.83,0,*52
1486818136.29,17811,11.13,73738.5,-2.43,-34.31,-34.59,0,*55
1486818137.56,17812,11.13,73736.3,-2.41,-34.59,-35.07,0,*50
1486818138.83,17813,11.13,73732.5,-2.41,-34.59,-34.95,0,*5B
1486818140.07,17814,11.13,73736.3,-2.41,-34.71,-35.13,0,*59
1486818141.33,17815,11.13,73736.3,-2.41,-34.71,-35.23,0,*5B
1486818142.58,17816,11.13,73734.5,-2.41,-34.71,-35.13,0,*5B
1486818143.81,17817,11.13,73736.8,-2.41,-34.41,-34.89,0,*5B
1486818145.07,17818,11.13,73736.8,-2.41,-34.13,-34.53,0,*54
1486818146.33,17819,11.13,73736.8,-2.43,-34.01,-34.31,0,*50
1486818147.55,17820,11.13,73734.5,-2.43,-34.07,-34.47,0,*5D
1486818148.78,17821,11.13,73736.5,-2.43,-34.41,-34.83,0,*56
1486818150.05,17822,11.13,73732.5,-2.43,-34.31,-34.65,0,*5A
1486818151.26,17823,11.13,73734.3,-2.39,-34.25,-34.71,0,*56
1486818152.52,17824,11.13,73738.5,-2.41,-34.35,-34.59,0,*55
1486818153.78,17825,11.13,73738.5,-2.41,-34.53,-34.89,0,*59
1486818155.08,17826,11.13,73734.5,-2.41,-34.53,-34.95,0,*57
1486818156.36,17827,11.13,73734.3,-2.41,-34.95,-35.35,0,*57
1486818157.63,17828,11.13,73734.8,-2.41,-34.71,-35.23,0,*55
1486818158.87,17829,11.13,73734.5,-2.43,-34.47,-34.83,0,*58
1486818160.09,17830,11.13,73732.3,-2.43,-34.59,-35.01,0,*54
1486818161.3,17831,11.13,73734.5,-2.43,-34.41,-34.77,0,*5C
1486818162.51,17832,11.13,73736.0,-2.43,-34.41,-34.77,0,*5F
1486818163.8,17833,11.13,73736.3,-2.41,-34.53,-35.07,0,*59
1486818165.04,17834,11.13,73738.8,-2.41,-34.89,-35.29,0,*55
1486818166.3,17835,11.13,73736.3,-2.41,-34.19,-34.59,0,*5B
1486818167.51,17836,11.13,73738.8,-2.39,-34.41,-34.89,0,*57
1486818168.76,17837,11.13,73732.5,-2.43,-34.47,-34.95,0,*50
1486818170.02,17838,11.13,73734.3,-2.43,-34.95,-35.41,0,*58
1486818171.26,17839,11.13,73734.3,-2.43,-34.83,-35.17,0,*5D
1486818172.49,17840,11.13,73740.0,-2.43,-34.41,-34.83,0,*51
1486818173.71,17841,11.13,73738.5,-2.43,-34.77,-35.29,0,*54
1486818174.96,17842,11.13,73736.3,-2.43,-34.59,-34.95,0,*5D
1486818176.2,17843,11.13,73734.3,-2.43,-34.65,-35.13,0,*5C
1486818177.42,17844,11.13,73738.3,-2.43,-35.29,-35.71,0,*56
1486818178.63,17845,11.13,73738.5,-2.45,-34.77,-35.29,0,*56
1486818179.87,17846,11.13,73732.8,-2.45,-34.65,-35.13,0,*5F
1486818181.13,17847,11.13,73736.5,-2.45,-34.83,-35.35,0,*52
1486818182.37,17848,11.13,73740.0,-2.45,-34.65,-35.13,0,*51
1486818183.59,17849,11.13,73738.5,-2.45,-34.59,-35.17,0,*5B
1486818184.8,17850,11.13,73736.8,-2.45,-34.77,-35.29,0,*52
1486818186.04,17851,11.13,73736.8,-2.43,-34.59,-34.83,0,*58
1486818187.3,17852,11.13,73738.8,-2.45,-34.95,-35.35,0,*51
1486818188.53,17853,11.13,73738.5,-2.45,-35.13,-35.41,0,*5C
1486818189.77,17854,11.13,73732.3,-2.45,-34.65,-35.13,0,*5C
1486818191.01,17855,11.13,73738.3,-2.45,-34.83,-35.17,0,*51
1486818192.22,17856,11.13,73738.5,-2.45,-34.77,-35.17,0,*59
1486818193.46,17857,11.13,73736.0,-2.45,-34.47,-34.95,0,*50
1486818194.69,17858,11.13,73734.8,-2.45,-34.41,-34.83,0,*5E
1486818195.89,17859,11.13,73738.5,-2.45,-34.25,-34.59,0,*5A
1486818197.13,17860,11.13,73740.0,-2.45,-34.31,-34.47,0,*5A
1486818198.35,17861,11.13,73738.8,-2.45,-33.89,-34.25,0,*5B
1486818199.59,17862,11.13,73736.0,-2.43,-34.19,-34.47,0,*54
1486818200.83,17863,11.13,73736.3,-2.45,-34.31,-34.47,0,*59
1486818202.09,17864,11.13,73740.0,-2.43,-34.31,-34.65,0,*58
1486818203.33,17865,11.13,73734.0,-2.43,-34.25,-34.65,0,*5C
1486818204.54,17866,11.13,73738.3,-2.45,-34.07,-34.59,0,*56
1486818205.81,17867,11.13,73736.5,-2.43,-34.31,-34.65,0,*5B
1486818207.05,17868,11.13,73732.8,-2.43,-34.25,-34.65,0,*51
1486818208.29,17869,11.13,73736.8,-2.45,-34.47,-34.95,0,*5D
1486818209.53,17870,11.13,73736.8,-2.45,-34.47,-34.83,0,*52
1486818210.74,17871,11.13,73738.0,-2.45,-34.25,-34.47,0,*5F
1486818211.96,17872,11.13,73738.3,-2.43,-34.59,-35.01,0,*52
1486818213.17,17873,11.13,73734.5,-2.43,-34.07,-34.41,0,*5D
1486818214.4,17874,11.13,73738.5,-2.43,-34.19,-34.59,0,*5C
1486818215.62,17875,11.13,73734.0,-2.43,-34.07,-34.47,0,*5D
1486818216.89,17876,11.13,73738.3,-2.43,-34.31,-34.65,0,*5B
1486818218.1,17877,11.13,73734.8,-2.43,-34.07,-34.41,0,*59
1486818219.3,17878,11.13,73734.0,-2.43,-33.95,-34.25,0,*58
1486818220.56,17879,11.13,73736.3,-2.43,-33.73,-34.19,0,*5E
1486818221.79,17880,11.13,73736.5,-2.43,-34.07,-34.31,0,*56
1486818223.06,17881,11.13,73736.5,-2.41,-34.13,-34.53,0,*54
1486818224.26,17882,11.13,73742.0,-2.39,-33.95,-34.25,0,*50
1486818225.49,17883,11.13,73738.5,-2.41,-33.83,-34.25,0,*59
1486818226.72,17884,11.13,73734.8,-2.39,-33.95,-34.35,0,*57
1486818227.95,17885,11.13,73736.3,-2.39,-33.95,-34.35,0,*56
1486818229.19,17886,11.13,73734.5,-2.41,-34.25,-34.71,0,*56
1486818230.48,17887,11.13,73736.0,-2.41,-34.53,-34.95,0,*5C
1486818231.71,17888,11.13,73734.5,-2.39,-34.01,-34.25,0,*50
1486818232.92,17889,11.13,73738.3,-2.39,-33.95,-34.25,0,*5B
1486818234.12,17890,11.13,73736.5,-2.39,-33.95,-34.41,0,*51
1486818235.33,17891,11.13,73738.3,-2.39,-33.83,-34.41,0,*57
1486818236.57,17892,11.13,73734.5,-2.39,-34.13,-34.53,0,*59
1486818237.78,17893,11.13,73734.8,-2.39,-33.95,-34.25,0,*50
1486818238.99,17894,11.13,73736.8,-2.39,-34.13,-34.41,0,*5C
1486818240.23,17895,11.13,73736.8,-2.39,-34.13,-34.53,0,*5E
1486818241.47,17896,11.19,73738.0,-2.39,-34.19,-34.71,0,*57
1486818242.72,17897,11.13,73734.3,-2.39,-34.35,-34.77,0,*5E
1486818243.93,17898,11.13,73736.5,-2.39,-34.41,-34.77,0,*52
1486818245.19,17899,11.13,73738.0,-2.41,-34.35,-34.89,0,*5E
1486818246.45,17900,11.13,73738.5,-2.41,-34.71,-35.07,0,*58
1486818247.7,17901,11.19,73736.0,-2.39,-34.59,-35.07,0,*5C
1486818248.94,17902,11.13,73738.5,-2.39,-34.59,-35.07,0,*5F
1486818250.21,17903,11.13,73736.5,-2.39,-34.53,-35.07,0,*54
1486818251.45,17904,11.19,73738.3,-2.41,-34.25,-34.59,0,*57
1486818252.74,17905,11.19,73736.3,-2.41,-34.53,-34.95,0,*57
1486818254.03,17906,11.13,73738.0,-2.41,-34.53,-35.07,0,*5E
1486818255.26,17907,11.13,73736.3,-2.41,-34.25,-34.59,0,*54
1486818256.49,17908,11.13,73738.0,-2.41,-34.25,-34.59,0,*5B
1486818257.75,17909,11.19,73738.8,-2.41,-34.13,-34.35,0,*55
1486818258.99,17910,11.13,73736.3,-2.39,-34.13,-34.53,0,*52
1486818260.2,17911,11.13,73736.0,-2.39,-33.95,-34.25,0,*5B
1486818261.43,17912,11.19,73740.0,-2.39,-34.19,-34.59,0,*50
1486818262.68,17913,11.13,73736.0,-2.39,-34.53,-34.77,0,*53
1486818263.95,17914,11.19,73736.5,-2.39,-34.53,-35.07,0,*52
1486818265.19,17915,11.19,73736.0,-2.39,-34.13,-34.35,0,*57
1486818266.4,17916,11.19,73738.0,-2.39,-34.25,-34.59,0,*5B
1486818267.61,17917,11.13,73736.0,-2.39,-34.13,-34.41,0,*56
1486818268.83,17918,11.19,73738.0,-2.41,-33.83,-34.25,0,*5A
1486818270.04,17919,11.13,73738.8,-2.39,-33.95,-34.25,0,*53
1486818271.25,17920,11.19,73736.3,-2.39,-34.41,-34.89,0,*51
1486818272.49,17921,11.19,73738.3,-2.39,-34.53,-34.89,0,*53
1486818273.78,17922,11.13,73738.8,-2.37,-34.19,-34.53,0,*57
1486818275.03,17923,11.13,73738.0,-2.37,-34.47,-34.89,0,*5A
1486818276.24,17924,11.13,73736.5,-2.39,-34.41,-34.89,0,*55
1486818277.45,17925,11.19,73740.5,-2.39,-34.25,-34.59,0,*5B
1486818278.69,17926,11.19,73738.3,-2.39,-34.77,-35.23,0,*53
1486818279.93,17927,11.19,73738.8,-2.39,-34.77,-35.23,0,*52
1486818281.18,17928,11.19,73738.3,-2.39,-34.95,-35.29,0,*5B
1486818282.4,17929,11.19,73738.8,-2.39,-34.59,-34.89,0,*51
1486818283.63,17930,11.19,73736.0,-2.41,-34.41,-34.77,0,*5E
1486818284.91,17931,11.13,73736.8,-2.39,-34.53,-34.95,0,*5F
1486818286.17,17932,11.19,73736.0,-2.41,-34.59,-34.95,0,*59
1486818287.41,17933,11.19,73738.3,-2.39,-34.35,-34.71,0,*57
1486818288.67,17934,11.13,73734.0,-2.41,-33.77,-34.25,0,*5F
1486818289.91,17935,11.19,73736.8,-2.39,-34.41,-34.95,0,*58
1486818291.2,17936,11.19,73738.8,-2.41,-34.53,-34.95,0,*57
1486818292.43,17937,11.19,73736.3,-2.41,-34.41,-34.71,0,*5F
1486818293.68,17938,11.19,73738.3,-2.39,-34.13,-34.53,0,*58
1486818294.94,17939,11.19,73738.5,-2.41,-34.35,-34.77,0,*54
1486818296.21,17940,11.13,73732.8,-2.39,-34.53,-35.07,0,*53
1486818297.42,17941,11.19,73738.8,-2.39,-34.41,-34.77,0,*57
1486818298.65,17942,11.19,73734.0,-2.39,-34.59,-35.13,0,*5E
1486818299.89,17943,11.19,73736.8,-2.39,-34.59,-34.95,0,*50
1486818301.13,17944,11.19,73738.8,-2.41,-34.41,-34.77,0,*5D
1486818302.38,17945,11.19,73738.8,-2.39,-34.59,-34.95,0,*56
1486818303.65,17946,11.19,73738.3,-2.41,-34.59,-34.95,0,*5A
1486818304.91,17947,11.19,73740.5,-2.41,-34.19,-34.71,0,*55
1486818306.15,17948,11.19,73738.3,-2.41,-34.77,-35.13,0,*57
1486818307.44,17949,11.19,73738.3,-2.41,-34.53,-34.95,0,*5F
1486818308.71,17950,11.19,73738.5,-2.41,-34.59,-35.07,0,*57
1486818309.94,17951,11.19,73740.0,-2.41,-35.13,-35.47,0,*5D
1486818311.18,17952,11.19,73740.3,-2.41,-34.71,-35.13,0,*5A
1486818312.45,17953,11.19,73738.0,-2.43,-34.65,-34.95,0,*53
1486818313.69,17954,11.19,73732.8,-2.43,-34.41,-34.83,0,*55
1486818314.95,17955,11.19,73736.8,-2.43,-34.95,-35.35,0,*51
1486818316.22,17956,11.19,73734.5,-2.41,-34.59,-35.07,0,*51
1486818317.45,17957,11.19,73736.3,-2.41,-34.41,-34.77,0,*5F
1486818318.7,17958,11.19,73734.0,-2.41,-34.77,-35.29,0,*5F
1486818319.94,17959,11.19,73738.3,-2.43,-34.83,-35.29,0,*57
1486818321.21,17960,11.19,73736.8,-2.43,-34.95,-35.35,0,*57
1486818322.42,17961,11.19,73736.3,-2.45,-34.77,-35.17,0,*5C
1486818323.66,17962,11.19,73736.0,-2.41,-34.59,-35.13,0,*53
1486818324.9,17963,11.19,73736.5,-2.45,-34.95,-35.29,0,*5F
1486818326.12,17964,11.13,73730.3,-2.45,-34.77,-35.29,0,*54
1486818327.36,17965,11.19,73736.8,-2.43,-34.65,-35.13,0,*59
1486818328.63,17966,11.19,73736.5,-2.43,-34.83,-35.41,0,*55
1486818329.85,17967,11.19,73738.0,-2.45,-34.77,-35.29,0,*57
1486818331.09,17968,11.19,73736.3,-2.45,-34.65,-35.01,0,*51
1486818332.34,17969,11.19,73736.8,-2.43,-34.65,-35.01,0,*56
1486818333.55,17970,11.19,73736.5,-2.45,-34.77,-35.13,0,*58
1486818334.81,17971,11.19,73738.0,-2.49,-34.65,-35.07,0,*53
1486818336.05,17972,11.19,73734.0,-2.45,-34.59,-34.95,0,*59
1486818337.29,17973,11.19,73736.0,-2.45,-34.65,-35.01,0,*5B
1486818338.53,17974,11.19,73738.8,-2.45,-34.41,-34.95,0,*56
1486818339.77,17975,11.19,73738.5,-2.45,-34.59,-34.95,0,*5E
1486818341.0,17976,11.19,73736.3,-2.45,-34.83,-35.17,0,*51
1486818342.24,17977,11.19,73738.0,-2.45,-34.65,-35.01,0,*5F
1486818343.46,17978,11.19,73736.0,-2.45,-34.59,-35.01,0,*5F
1486818344.68,17979,11.19,73738.8,-2.45,-34.47,-35.01,0,*51
1486818345.93,17980,11.19,73736.0,-2.49,-34.83,-35.23,0,*53
1486818347.19,17981,11.19,73736.3,-2.49,-34.31,-34.65,0,*58
1486818348.43,17982,11.19,73738.8,-2.45,-34.41,-34.95,0,*5F
1486818349.67,17983,11.19,73738.8,-2.45,-34.65,-35.01,0,*54
1486818350.89,17984,11.19,73738.0,-2.45,-34.77,-35.29,0,*5A
1486818352.12,17985,11.19,73736.8,-2.49,-34.71,-35.07,0,*5D
1486818353.35,17986,11.19,73740.5,-2.49,-34.31,-34.71,0,*5A
1486818354.58,17987,11.19,73738.3,-2.49,-34.13,-34.53,0,*5B
1486818355.83,17988,11.19,73738.3,-2.45,-34.47,-34.95,0,*53
1486818357.04,17989,11.19,73738.8,-2.49,-34.47,-35.01,0,*52
1486818358.25,17990,11.19,73738.3,-2.49,-34.71,-35.17,0,*58
1486818359.49,17991,11.19,73740.0,-2.49,-34.65,-35.01,0,*5B
1486818360.74,17992,11.19,73738.8,-2.51,-33.95,-34.35,0,*5F
1486818361.96,17993,11.19,73740.5,-2.49,-33.95,-34.31,0,*53
1486818363.19,17994,11.19,73742.8,-2.49,-34.07,-34.35,0,*5C
1486818364.41,17995,11.19,73740.3,-2.43,-34.47,-34.77,0,*55
1486818365.65,17996,11.19,73740.3,-2.45,-34.01,-34.47,0,*51
1486818366.85,17997,11.19,73742.5,-2.45,-34.41,-34.77,0,*57
1486818368.06,17998,11.19,73740.3,-2.45,-34.25,-34.59,0,*56
1486818369.26,17999,11.19,73740.8,-2.45,-34.07,-34.41,0,*5E
1486818370.52,18000,11.19,73740.5,-2.45,-34.01,-34.31,0,*59
1486818371.72,18001,11.19,73738.5,-2.45,-34.41,-34.77,0,*5E
1486818372.97,18002,11.19,73740.8,-2.45,-34.65,-35.01,0,*5B
1486818374.18,18003,11.19,73740.8,-2.45,-34.59,-35.01,0,*55
1486818375.43,18004,11.19,73740.5,-2.45,-34.65,-35.01,0,*5D
1486818376.66,18005,11.19,73738.8,-2.45,-34.19,-34.59,0,*5B
1486818377.86,18006,11.19,73738.0,-2.45,-34.25,-34.59,0,*57
1486818379.1,18007,11.19,73740.3,-2.45,-34.41,-34.95,0,*54
1486818380.36,18008,11.19,73738.0,-2.45,-34.95,-35.35,0,*59
1486818381.62,18009,11.19,73742.8,-2.49,-35.07,-35.41,0,*5D
1486818382.86,18010,11.19,73740.0,-2.45,-34.83,-35.29,0,*5A
1486818384.08,18011,11.19,73742.0,-2.49,-34.89,-35.35,0,*50
1486818385.29,18012,11.19,73742.3,-2.49,-34.71,-35.17,0,*54
1486818386.53,18013,11.19,73736.0,-2.49,-34.47,-34.83,0,*5C
1486818387.78,18014,11.19,73742.0,-2.49,-34.65,-35.23,0,*50
1486818389.01,18015,11.19,73736.5,-2.51,-35.17,-35.47,0,*5E
1486818390.27,18016,11.19,73738.3,-2.51,-34.71,-35.07,0,*58
1486818391.49,18017,11.19,73736.8,-2.49,-34.47,-34.71,0,*55
1486818392.72,18018,11.19,73740.5,-2.49,-34.25,-34.53,0,*5E
1486818393.96,18019,11.19,73738.3,-2.49,-33.89,-34.31,0,*5A
1486818395.17,18020,11.19,73738.8,-2.49,-34.13,-34.47,0,*55
1486818396.39,18021,11.19,73740.3,-2.49,-34.25,-34.83,0,*59
1486818397.6,18022,11.19,73740.0,-2.49,-34.25,-34.47,0,*52
1486818398.83,18023,11.19,73738.8,-2.49,-34.25,-34.53,0,*56
1486818400.04,18024,11.19,73740.3,-2.49,-34.07,-34.47,0,*54
1486818401.28,18025,11.19,73736.0,-2.49,-33.89,-34.35,0,*51
1486818402.53,18026,11.19,73738.3,-2.49,-34.35,-34.83,0,*5F
1486818403.8,18027,11.19,73736.8,-2.45,-34.95,-35.41,0,*57
1486818405.0,18028,11.19,73736.0,-2.45,-34.41,-34.77,0,*55
1486818406.26,18029,11.19,73738.8,-2.45,-34.01,-34.31,0,*52
1486818407.47,18030,11.19,73738.0,-2.45,-34.07,-34.47,0,*5D
1486818408.68,18031,11.19,73738.0,-2.45,-34.41,-34.59,0,*51
1486818409.91,18032,11.19,73742.5,-2.45,-34.47,-34.83,0,*53
1486818411.12,18033,11.19,73740.5,-2.49,-34.47,-34.71,0,*53
1486818412.33,18034,11.19,73742.0,-2.49,-34.47,-34.71,0,*54
1486818413.56,18035,11.19,73738.8,-2.49,-34.35,-34.71,0,*50
1486818414.79,18036,11.19,73740.5,-2.45,-34.41,-34.83,0,*51
1486818416.0,18037,11.19,73740.0,-2.49,-34.47,-34.71,0,*57
1486818417.21,18038,11.19,73736.8,-2.49,-34.71,-35.17,0,*5C
1486818418.47,18039,11.19,73736.0,-2.45,-34.95,-35.35,0,*5B
1486818419.71,18040,11.19,73738.3,-2.49,-34.65,-35.01,0,*51
1486818420.97,18041,11.19,73740.3,-2.49,-34.83,-35.35,0,*5F
1486818422.21,18042,11.19,73740.5,-2.49,-34.53,-35.01,0,*56
1486818423.49,18043,11.19,73738.3,-2.51,-34.83,-35.23,0,*53
1486818424.75,18044,11.19,73742.3,-2.51,-34.71,-35.07,0,*5F
1486818425.96,18045,11.19,73738.8,-2.49,-34.71,-35.17,0,*56
1486818427.22,18046,11.19,73742.5,-2.49,-34.65,-35.07,0,*51
1486818428.5,18047,11.19,73740.0,-2.51,-34.83,-35.23,0,*57
1486818429.78,18048,11.19,73742.8,-2.51,-34.83,-35.35,0,*5F
1486818431.04,18049,11.19,73742.3,-2.51,-34.53,-34.89,0,*55
1486818432.3,18050,11.19,73738.3,-2.51,-34.71,-35.23,0,*5C
1486818433.56,18051,11.19,73738.3,-2.51,-34.35,-34.71,0,*5B
1486818434.84,18052,11.19,73738.0,-2.51,-34.35,-34.83,0,*55
1486818436.11,18053,11.19,73740.5,-2.51,-34.31,-34.83,0,*50
1486818437.37,18054,11.19,73738.5,-2.51,-34.25,-34.53,0,*5F
1486818438.62,18055,11.19,73742.3,-2.49,-34.31,-34.83,0,*5F
1486818439.89,18056,11.19,73736.8,-2.51,-34.53,-35.01,0,*5A
1486818441.17,18057,11.19,73734.5,-2.51,-34.65,-35.07,0,*58
1486818442.43,18058,11.19,73736.3,-2.51,-34.25,-34.53,0,*53
1486818443.71,18059,11.19,73740.0,-2.51,-34.35,-34.65,0,*56
1486818444.95,18060,11.19,73736.3,-2.51,-34.47,-34.89,0,*5B
1486818446.23,18061,11.19,73738.0,-2.51,-34.65,-35.07,0,*5D
1486818447.49,18062,11.19,73738.8,-2.51,-34.35,-34.89,0,*5C
1486818448.75,18063,11.19,73742.0,-2.51,-34.65,-34.89,0,*58
1486818449.98,18064,11.19,73740.8,-2.49,-34.53,-34.89,0,*53
1486818451.24,18065,11.19,73740.5,-2.51,-34.13,-34.65,0,*5D
1486818452.52,18066,11.19,73742.0,-2.51,-33.77,-34.31,0,*5A
1486818453.75,18067,11.19,73742.3,-2.49,-34.31,-34.71,0,*53
1486818454.99,18068,11.19,73736.8,-2.49,-33.89,-34.31,0,*5C
1486818456.2,18069,11.19,73742.8,-2.49,-34.07,-34.47,0,*5D
1486818457.47,18070,11.19,73740.3,-2.51,-34.53,-35.01,0,*5E
1486818458.71,18071,11.19,73738.3,-2.49,-34.53,-35.01,0,*56
1486818459.96,18072,11.19,73738.5,-2.51,-34.35,-34.71,0,*5A
1486818461.17,18073,11.19,73740.5,-2.49,-34.07,-34.47,0,*56
1486818462.43,18074,11.19,73740.3,-2.51,-34.65,-34.89,0,*5E
1486818463.7,18075,11.19,73738.0,-2.51,-34.35,-34.71,0,*5D
1486818464.95,18076,11.19,73738.0,-2.51,-34.47,-34.83,0,*56
1486818466.21,18077,11.19,73736.0,-2.49,-34.65,-35.07,0,*53
1486818467.49,18078,11.19,73736.5,-2.51,-34.83,-35.23,0,*5B
1486818468.72,18079,11.19,73738.5,-2.51,-34.71,-35.17,0,*50
1486818469.97,18080,11.19,73736.3,-2.51,-34.71,-35.01,0,*51
1486818471.17,18081,11.19,73742.0,-2.53,-34.13,-34.41,0,*53
1486818472.43,18082,11.19,73740.3,-2.51,-34.07,-34.53,0,*54
1486818473.68,18083,11.19,73736.0,-2.49,-34.35,-34.83,0,*50
1486818474.92,18084,11.19,73734.3,-2.51,-34.47,-34.89,0,*51
1486818476.15,18085,11.19,73738.8,-2.49,-34.71,-35.23,0,*5D
1486818477.38,18086,11.19,73738.8,-2.49,-34.65,-35.17,0,*5C
1486818478.64,18087,11.19,73736.3,-2.51,-34.35,-34.71,0,*50
1486818479.9,18088,11.19,73742.5,-2.51,-34.13,-34.65,0,*5E
1486818481.14,18089,11.19,73742.0,-2.51,-34.47,-34.89,0,*5C
1486818482.37,18090,11.19,73738.8,-2.51,-34.47,-34.89,0,*54
1486818483.66,18091,11.19,73738.0,-2.51,-34.53,-35.07,0,*57
1486818484.95,18092,11.19,73742.5,-2.51,-34.53,-35.07,0,*54
1486818486.2,18093,11.19,73740.0,-2.51,-34.35,-34.71,0,*55
1486818487.46,18094,11.19,73738.5,-2.51,-34.25,-34.53,0,*53
1486818488.72,18095,11.19,73740.3,-2.51,-34.25,-34.65,0,*57
1486818489.95,18096,11.19,73738.0,-2.51,-34.71,-35.17,0,*51
1486818491.21,18097,11.19,73738.5,-2.51,-34.47,-34.83,0,*59
1486818492.45,18098,11.19,73740.5,-2.51,-34.13,-34.47,0,*5F
1486818493.71,18099,11.19,73740.5,-2.51,-34.65,-35.01,0,*5C
1486818494.97,18100,11.19,73738.8,-2.51,-34.31,-34.89,0,*5D
1486818496.23,18101,11.19,73738.3,-2.51,-34.47,-34.83,0,*57
1486818497.51,18102,11.19,73738.0,-2.51,-34.35,-34.83,0,*51